Andover, NJ

9:03 PM EST on February 09, 2016 (GMT -0500)
Andover

Weather History for K12N - June, 2013

Change the Weather History Date:

Tuesday, June 25, 2013

  Actual Average (KFWN) Record (KFWN)
Temperature  
Mean Temperature 76 °F -  
Max Temperature 88 °F 80 °F 94 °F (1952)
Min Temperature 64 °F 54 °F 41 °F (1979)
Cooling Degree Days 10    
Growing Degree Days 26 (Base 50)    
Moisture  
Dew Point 68 °F    
Average Humidity 77    
Maximum Humidity 97    
Minimum Humidity 55    
Precipitation  
Precipitation 0.17 in - - ()
Sea Level Pressure  
Sea Level Pressure 29.91 in    
Wind  
Wind Speed 2 mph (SSW)    
Max Wind Speed 12 mph    
Max Gust Speed 17 mph    
Averages and records for this station are not official NWS values.
T = Trace of Precipitation, MM = Missing Value Source: NWS Daily Summary

Daily Weather History Graph

Daily Weather History Graph

Search for Another Location

Airport or City:

Trip Planner

Search our weather history database for the weather conditions in past years. The results will help you decide how hot, cold, wet, or windy it might be!

Date:

Astronomy

Jun. 25, 2013 Rise Set
Actual Time 5:28 AM EDT 8:35 PM EDT
Civil Twilight 4:54 AM EDT 9:08 PM EDT
Nautical Twilight 4:11 AM EDT 9:51 PM EDT
Astronomical Twilight 3:20 AM EDT 10:42 PM EDT
Moon 10:17 PM EDT (6/25) 8:06 AM EDT (6/25)
Length of Visible Light 16h 14m
Length of Day
15h 07m
Waning Gibbous, 93% of the Moon is Illuminated
Jun 25
Waning Gibbous
Jun 30
Last Quarter
Jul 8
New
Jul 15
First Quarter
Jul 22
Full

Hourly Weather History & Observations

Time (EDT) Temp. Heat Index Dew Point Humidity Pressure Visibility Wind Dir Wind Speed Gust Speed Precip Events Conditions
12:54 AM 66.9 °F - 66.0 °F 97% 30.00 in - Calm Calm - N/A   Unknown
1:54 AM 66.9 °F - 64.9 °F 93% 29.98 in - Calm Calm - N/A   Unknown
2:00 AM - - - N/A% - - North - - N/A   Unknown
2:54 AM 66.9 °F - 64.9 °F 93% 29.96 in - Calm Calm - N/A   Unknown
3:54 AM 66.0 °F - 64.9 °F 96% 29.96 in - Calm Calm - N/A   Unknown
4:54 AM 66.0 °F - 64.0 °F 93% 29.96 in - Calm Calm - N/A   Unknown
5:54 AM 64.9 °F - 64.0 °F 97% 29.96 in - Calm Calm - N/A   Unknown
6:54 AM 68.0 °F - 66.0 °F 93% 29.96 in - Calm Calm - N/A   Unknown
7:54 AM 71.1 °F - 68.0 °F 90% 29.97 in - Calm Calm - N/A   Unknown
8:54 AM 75.0 °F - 69.1 °F 82% 29.96 in - Calm Calm - N/A   Unknown
9:54 AM 79.0 °F - 70.0 °F 74% 29.95 in - SSW 3.5 mph - N/A   Unknown
10:54 AM 82.9 °F 87.0 °F 70.0 °F 65% 29.95 in - Variable 3.5 mph - N/A   Unknown
11:54 AM 84.9 °F 89.4 °F 70.0 °F 61% 29.94 in - Variable 6.9 mph - N/A   Unknown
12:54 PM 87.1 °F 91.3 °F 69.1 °F 55% 29.91 in - Variable 6.9 mph - N/A   Unknown
1:54 PM 86.0 °F 90.1 °F 69.1 °F 57% 29.89 in - SW 11.5 mph 16.1 mph N/A   Unknown
2:54 PM 84.9 °F 88.8 °F 69.1 °F 59% 29.87 in - SW 9.2 mph - N/A   Unknown
3:54 PM 82.9 °F 87.0 °F 70.0 °F 65% 29.87 in - SSW 5.8 mph - N/A   Unknown
4:54 PM 82.9 °F 87.0 °F 70.0 °F 65% 29.85 in - Variable 5.8 mph - N/A   Unknown
5:54 PM 84.0 °F 87.8 °F 69.1 °F 61% 29.81 in - SW 11.5 mph 17.3 mph N/A   Unknown
6:54 PM 82.0 °F 84.5 °F 66.9 °F 60% 29.82 in - SSW 5.8 mph - N/A   Unknown
7:54 PM 81.0 °F 83.0 °F 66.0 °F 60% 29.84 in - SSW 3.5 mph - N/A   Unknown
8:54 PM 78.1 °F - 66.9 °F 68% 29.84 in - South 3.5 mph - N/A   Unknown
9:54 PM 75.0 °F - 66.9 °F 76% 29.84 in - Calm Calm - N/A   Unknown
10:54 PM 73.0 °F - 69.1 °F 87% 29.85 in - Calm Calm - 0.16 in   Unknown
11:54 PM 72.0 °F - 69.1 °F 91% 29.82 in - Calm Calm - 0.01 in   Unknown